Bookmark and Share
Track history (hours):
 

Kisaragimaru

Last reported at 2014-Apr-19 06:20 UTC. Time now 2014-Apr-19 07:06 UTC.
Position N 34°36' E 135°19'.

Length 77 m; draft 4.9 m.

Type: Tanker. MMSI: 431501667.

NotesDate/timePositionNaut miles runAvg speedWind from/ knotsBaromVisibWave heightAir tempDewpointWater temp
2014-Apr-19 06:20N 34°36' E 135°19'0 0.0
2014-Apr-19 05:32N 34°36' E 135°19'0 0.0
2014-Apr-19 03:32N 34°36' E 135°19'0 0.0
2014-Apr-19 02:32N 34°36' E 135°19'0 0.1
2014-Apr-19 01:26N 34°36' E 135°19'0 0.0
2014-Apr-19 00:20N 34°36' E 135°19'0 0.0
2014-Apr-18 23:32N 34°36' E 135°19'0 0.0
2014-Apr-18 22:32N 34°36' E 135°19'0 0.0
2014-Apr-18 21:32N 34°36' E 135°19'0 0.0
2014-Apr-18 20:32N 34°36' E 135°19'0 0.0
2014-Apr-18 19:26N 34°36' E 135°19'0 0.0
2014-Apr-18 18:32N 34°36' E 135°19'0 0.0
2014-Apr-18 17:32N 34°36' E 135°19'0 0.0
2014-Apr-18 16:32N 34°36' E 135°19'0 0.0
2014-Apr-18 15:32N 34°36' E 135°19'0 0.0
2014-Apr-18 14:20N 34°36' E 135°19'0 0.0
2014-Apr-18 13:14N 34°36' E 135°19'0 0.0
2014-Apr-18 12:32N 34°36' E 135°19'0 0.0
2014-Apr-18 11:32N 34°36' E 135°19'0 0.0
2014-Apr-18 10:20N 34°36' E 135°19'0 0.0
2014-Apr-18 07:26N 34°36' E 135°19'0 0.1
2014-Apr-18 06:32N 34°36' E 135°19'0 0.0
2014-Apr-18 05:32N 34°36' E 135°19'0 0.0
2014-Apr-18 04:26N 34°36' E 135°19'0 0.0
2014-Apr-18 03:32N 34°36' E 135°19'0 0.0
2014-Apr-18 02:32N 34°36' E 135°19'0 0.0
2014-Apr-18 01:32N 34°36' E 135°19'0 0.1
2014-Apr-18 00:32N 34°36' E 135°19'7 0.2
2014-Apr-16 04:08N 34°31' E 135°24'1 2.3
2014-Apr-16 03:33N 34°32' E 135°24'5 3.7
2014-Apr-16 02:08N 34°36' E 135°19'0 0.1
2014-Apr-16 01:26N 34°36' E 135°19'0 0.0
2014-Apr-16 00:32N 34°36' E 135°19'0 0.0
2014-Apr-15 23:26N 34°36' E 135°19'0 0.0
2014-Apr-15 22:20N 34°36' E 135°19'0 0.0
2014-Apr-15 21:32N 34°36' E 135°19'0 0.0
2014-Apr-15 20:32N 34°36' E 135°19'0 0.0
2014-Apr-15 19:32N 34°36' E 135°19'0 0.0
2014-Apr-15 18:32N 34°36' E 135°19'0 0.0
2014-Apr-15 17:32N 34°36' E 135°19'0 0.0
2014-Apr-15 16:32N 34°36' E 135°19'0 0.0
2014-Apr-15 15:32N 34°36' E 135°19'0 0.0
2014-Apr-15 14:32N 34°36' E 135°19'0 0.0
2014-Apr-15 10:32N 34°36' E 135°19'0 0.0
2014-Apr-15 06:32N 34°36' E 135°19'0 0.0
2014-Apr-15 05:32N 34°36' E 135°19'0 0.0
2014-Apr-15 03:32N 34°36' E 135°19'0 0.0
2014-Apr-15 00:32N 34°36' E 135°19'0 0.0
2014-Apr-14 19:32N 34°36' E 135°19'0 0.0
2014-Apr-14 17:32N 34°36' E 135°19'0 0.0
2014-Apr-14 15:32N 34°36' E 135°19'0 0.0
2014-Apr-14 14:32N 34°36' E 135°19'0 0.0
2014-Apr-14 13:32N 34°36' E 135°19'0 0.0
2014-Apr-14 10:32N 34°36' E 135°19'0 0.0
2014-Apr-13 22:32N 34°36' E 135°19'0 0.0
2014-Apr-13 21:32N 34°36' E 135°19'0 0.0
2014-Apr-13 20:32N 34°36' E 135°19'0 0.0
2014-Apr-13 19:32N 34°36' E 135°19'0 0.0
2014-Apr-13 18:32N 34°36' E 135°19'0 0.0
2014-Apr-13 17:26N 34°36' E 135°19'0 0.0
2014-Apr-13 16:26N 34°36' E 135°19'0 0.0
2014-Apr-13 15:26N 34°36' E 135°19'0 0.0
2014-Apr-13 14:26N 34°36' E 135°19'0 0.1
2014-Apr-13 13:32N 34°36' E 135°19'0 0.0
2014-Apr-13 12:26N 34°36' E 135°19'0 0.0
2014-Apr-13 11:20N 34°36' E 135°19'0 0.0
2014-Apr-13 10:32N 34°36' E 135°19'0 0.0
2014-Apr-13 09:32N 34°36' E 135°19'5 5.6
2014-Apr-13 08:34N 34°35' E 135°26'0 0.0
2014-Apr-13 01:15N 34°35' E 135°26'2 3.6
2014-Apr-13 00:33N 34°36' E 135°24'1010.3
2014-Apr-12 23:33N 34°30' E 135°14'1311.8
2014-Apr-12 22:25N 34°20' E 135°03'22 0.4
2014-Apr-10 19:05N 33°59' E 134°57'612.4
2014-Apr-10 18:33N 34°05' E 134°58'1313.1
2014-Apr-10 17:33N 34°18' E 134°58'1312.8
2014-Apr-10 16:33N 34°31' E 135°02'8 7.7
2014-Apr-10 15:31N 34°35' E 134°54'  

Dump ship's entire track history

sailing weather and tide predictions

Kisaragimaru — JL6605 — position and weather